| time (UTC) | temp F | wind direction | speed MPH | gust MPH | rain 1hr in | rain 24hr in | rain mn in | humidity % | barometer mb |
| 20260508081638 | 56 | 13 | 0.0 | 2.0 | 0.00 | 0.00 | 0.00 | 35 | 1014.3 |
| 20260508080646 | 56 | 14 | 2.0 | 3.0 | 0.00 | 0.00 | 0.00 | 36 | 1014.3 |
| 20260508074646 | 57 | 15 | 1.0 | 3.0 | 0.00 | 0.00 | 0.00 | 34 | 1014.5 |
| 20260508073645 | 58 | 13 | 1.0 | 3.0 | 0.00 | 0.00 | 0.00 | 34 | 1014.5 |
| 20260508072653 | 58 | 15 | 0.0 | 4.0 | 0.00 | 0.00 | 0.00 | 33 | 1014.6 |
| 20260508071653 | 58 | 15 | 0.0 | 5.0 | 0.00 | 0.00 | 0.00 | 33 | 1014.6 |
| 20260508070648 | 59 | 17 | 1.0 | 4.0 | 0.00 | 0.00 | 0.00 | 33 | 1014.6 |
| 20260508065644 | 59 | 14 | 3.0 | 5.0 | 0.00 | 0.00 | 0.00 | 33 | 1014.7 |
| 20260508063644 | 59 | 13 | 1.0 | 3.0 | 0.00 | 0.00 | 0.00 | 32 | 1014.6 |
| 20260508062651 | 59 | 14 | 2.0 | 4.0 | 0.00 | 0.00 | 0.00 | 32 | 1014.6 |
| 20260508061643 | 59 | 15 | 2.0 | 4.0 | 0.00 | 0.00 | 0.00 | 32 | 1014.7 |
| 20260508060645 | 59 | 13 | 3.0 | 3.0 | 0.00 | 0.00 | 0.00 | 31 | 1014.6 |
| 20260508055643 | 59 | 13 | 1.0 | 3.0 | 0.00 | 0.00 | 0.00 | 31 | 1014.5 |
| 20260508054644 | 60 | 13 | 1.0 | 3.0 | 0.00 | 0.00 | 0.00 | 31 | 1014.4 |
| 20260508053634 | 60 | 12 | 2.0 | 3.0 | 0.00 | 0.00 | 0.00 | 31 | 1014.5 |
| 20260508052637 | 60 | 11 | 1.0 | 4.0 | 0.00 | 0.00 | 0.00 | 31 | 1014.5 |
| 20260508045647 | 62 | 14 | 2.0 | 5.0 | 0.00 | 0.00 | 0.00 | 30 | 1014.7 |
| 20260508044637 | 62 | 15 | 3.0 | 4.0 | 0.00 | 0.00 | 0.00 | 30 | 1014.6 |
| 20260508043646 | 62 | 15 | 1.0 | 3.0 | 0.00 | 0.00 | 0.00 | 29 | 1014.6 |
| 20260508042641 | 63 | 15 | 3.0 | 4.0 | 0.00 | 0.00 | 0.00 | 29 | 1014.7 |
| 20260508041640 | 63 | 14 | 1.0 | 2.0 | 0.00 | 0.00 | 0.00 | 29 | 1014.7 |
| 20260508035645 | 64 | 138 | 1.0 | 6.0 | 0.00 | 0.00 | 0.00 | 28 | 1014.4 |
| 20260508034638 | 64 | 121 | 3.0 | 6.0 | 0.00 | 0.00 | 0.00 | 27 | 1014.3 |
| 20260508033636 | 65 | 132 | 3.0 | 7.0 | 0.00 | 0.00 | 0.00 | 26 | 1014.3 |
| 20260508032649 | 66 | 105 | 4.0 | 6.0 | 0.00 | 0.00 | 0.00 | 25 | 1014.0 |
| 20260508031645 | 68 | 128 | 2.0 | 4.0 | 0.00 | 0.00 | 0.00 | 23 | 1014.0 |
| 20260508030642 | 69 | 126 | 0.0 | 3.0 | 0.00 | 0.00 | 0.00 | 21 | 1013.9 |
| 20260508025649 | 70 | 119 | 1.0 | 2.0 | 0.00 | 0.00 | 0.00 | 20 | 1013.8 |
| 20260508024645 | 72 | 128 | 2.0 | 3.0 | 0.00 | 0.00 | 0.00 | 18 | 1013.7 |
| 20260508023644 | 74 | 191 | 0.0 | 2.0 | 0.00 | 0.00 | 0.00 | 17 | 1013.6 |
| 20260508022637 | 75 | 24 | 2.0 | 3.0 | 0.00 | 0.00 | 0.00 | 16 | 1013.4 |
| 20260508021635 | 76 | 23 | 2.0 | 3.0 | 0.00 | 0.00 | 0.00 | 15 | 1013.4 |
| 20260508020634 | 77 | 205 | 0.0 | 0.0 | 0.00 | 0.00 | 0.00 | 15 | 1013.3 |
| 20260508015649 | 78 | 209 | 0.0 | 0.0 | 0.00 | 0.00 | 0.00 | 14 | 1013.2 |
| 20260508014646 | 79 | 96 | 0.0 | 2.0 | 0.00 | 0.00 | 0.00 | 13 | 1013.3 |
| 20260508013640 | 79 | 221 | 0.0 | 1.0 | 0.00 | 0.00 | 0.00 | 13 | 1013.2 |
| 20260508012637 | 80 | 221 | 1.0 | 3.0 | 0.00 | 0.00 | 0.00 | 13 | 1013.1 |
| 20260508011630 | 80 | 237 | 3.0 | 6.0 | 0.00 | 0.00 | 0.00 | 13 | 1013.2 |
| 20260508005639 | 81 | 276 | 2.0 | 6.0 | 0.00 | 0.00 | 0.00 | 12 | 1013.3 |
| 20260508004629 | 82 | 250 | 4.0 | 7.0 | 0.00 | 0.00 | 0.00 | 12 | 1013.3 |
| 20260508003640 | 81 | 263 | 0.0 | 3.0 | 0.00 | 0.00 | 0.00 | 12 | 1013.4 |
| 20260508002628 | 81 | 296 | 2.0 | 4.0 | 0.00 | 0.00 | 0.00 | 12 | 1013.4 |
| 20260508001642 | 81 | 327 | 2.0 | 8.0 | 0.00 | 0.00 | 0.00 | 13 | 1013.4 |
| 20260508000635 | 81 | 284 | 4.0 | 9.0 | 0.00 | 0.00 | 0.00 | 13 | 1013.5 |
| 20260507234645 | 82 | 186 | 4.0 | 9.0 | 0.00 | 0.00 | 0.00 | 13 | 1013.8 |
| 20260507233638 | 81 | 242 | 1.0 | 11.0 | 0.00 | 0.00 | 0.00 | 12 | 1013.7 |
| 20260507232631 | 82 | 303 | 7.0 | 10.0 | 0.00 | 0.00 | 0.00 | 12 | 1013.8 |
| 20260507231641 | 82 | 239 | 3.0 | 13.0 | 0.00 | 0.00 | 0.00 | 12 | 1013.8 |
| 20260507230637 | 83 | 252 | 6.0 | 17.0 | 0.00 | 0.00 | 0.00 | 12 | 1013.8 |
| 20260507225636 | 83 | 181 | 3.0 | 11.0 | 0.00 | 0.00 | 0.00 | 12 | 1014.0 |
| 20260507222641 | 81 | 286 | 3.0 | 13.0 | 0.00 | 0.00 | 0.00 | 12 | 1014.0 |
| 20260507221634 | 82 | 253 | 8.0 | 15.0 | 0.00 | 0.00 | 0.00 | 12 | 1014.3 |
| 20260507220626 | 81 | 246 | 4.0 | 13.0 | 0.00 | 0.00 | 0.00 | 13 | 1014.3 |
| 20260507215639 | 82 | 271 | 10.0 | 15.0 | 0.00 | 0.00 | 0.00 | 12 | 1014.4 |
| 20260507211637 | 83 | 257 | 3.0 | 8.0 | 0.00 | 0.00 | 0.00 | 13 | 1014.8 |
| 20260507205723 | 81 | 116 | 6.0 | 9.0 | 0.00 | 0.00 | 0.00 | 14 | 1015.0 |
| 20260507203732 | 81 | 11 | 3.0 | 8.0 | 0.00 | 0.00 | 0.00 | 14 | 1015.4 |
| 20260507202723 | 80 | 85 | 5.0 | 9.0 | 0.00 | 0.00 | 0.00 | 14 | 1015.7 |
| 20260507200724 | 81 | 341 | 5.0 | 12.0 | 0.00 | 0.00 | 0.00 | 14 | 1016.0 |
| 20260507195739 | 80 | 232 | 2.0 | 9.0 | 0.00 | 0.00 | 0.00 | 14 | 1016.3 |
| 20260507194731 | 80 | 348 | 9.0 | 15.0 | 0.00 | 0.00 | 0.00 | 14 | 1016.4 |
| 20260507193730 | 80 | 67 | 6.0 | 9.0 | 0.00 | 0.00 | 0.00 | 16 | 1016.6 |
| 20260507192723 | 80 | 80 | 0.0 | 9.0 | 0.00 | 0.00 | 0.00 | 16 | 1016.7 |
| 20260507191737 | 79 | 91 | 3.0 | 11.0 | 0.00 | 0.00 | 0.00 | 16 | 1016.9 |
| 20260507190735 | 79 | 77 | 6.0 | 13.0 | 0.00 | 0.00 | 0.00 | 17 | 1017.0 |
| 20260507185724 | 78 | 289 | 4.0 | 11.0 | 0.00 | 0.00 | 0.00 | 16 | 1017.2 |
| 20260507184721 | 78 | 140 | 8.0 | 11.0 | 0.00 | 0.00 | 0.00 | 17 | 1016.5 |
| 20260507183738 | 78 | 33 | 3.0 | 21.0 | 0.00 | 0.00 | 0.00 | 17 | 1016.6 |
| 20260507182730 | 78 | 81 | 2.0 | 9.0 | 0.00 | 0.00 | 0.00 | 17 | 1016.7 |
| 20260507181727 | 77 | 40 | 5.0 | 10.0 | 0.00 | 0.00 | 0.00 | 18 | 1016.8 |
| 20260507180739 | 77 | 346 | 4.0 | 11.0 | 0.00 | 0.00 | 0.00 | 19 | 1017.1 |
| 20260507175738 | 76 | 288 | 2.0 | 9.0 | 0.00 | 0.00 | 0.00 | 18 | 1017.1 |
| 20260507174722 | 76 | 313 | 1.0 | 9.0 | 0.00 | 0.00 | 0.00 | 20 | 1017.4 |
| 20260507173720 | 76 | 75 | 6.0 | 9.0 | 0.00 | 0.00 | 0.00 | 21 | 1017.4 |
| 20260507172730 | 76 | 166 | 4.0 | 10.0 | 0.00 | 0.00 | 0.00 | 21 | 1017.6 |
| 20260507171722 | 75 | 61 | 2.0 | 9.0 | 0.00 | 0.00 | 0.00 | 21 | 1017.6 |
| 20260507164727 | 74 | 101 | 6.0 | 11.0 | 0.00 | 0.00 | 0.00 | 22 | 1017.8 |
| 20260507161731 | 70 | 5 | 2.0 | 4.0 | 0.00 | 0.00 | 0.00 | 28 | 1018.3 |
| 20260507160737 | 69 | 329 | 1.0 | 5.0 | 0.00 | 0.00 | 0.00 | 29 | 1018.4 |
| 20260507155729 | 67 | 304 | 0.0 | 6.0 | 0.00 | 0.00 | 0.00 | 30 | 1018.7 |
| 20260507153721 | 65 | 355 | 3.0 | 7.0 | 0.00 | 0.00 | 0.00 | 33 | 1018.7 |
| 20260507152721 | 64 | 5 | 3.0 | 8.0 | 0.00 | 0.00 | 0.00 | 35 | 1018.7 |
| 20260507151736 | 62 | 13 | 3.0 | 8.0 | 0.00 | 0.00 | 0.00 | 36 | 1018.8 |
| 20260507145727 | 61 | 360 | 6.0 | 9.0 | 0.00 | 0.00 | 0.00 | 38 | 1019.0 |
| 20260507144724 | 60 | 348 | 4.0 | 6.0 | 0.00 | 0.00 | 0.00 | 39 | 1019.0 |
| 20260507142716 | 58 | 26 | 4.0 | 8.0 | 0.00 | 0.00 | 0.00 | 42 | 1019.2 |
| 20260507141716 | 57 | 27 | 3.0 | 8.0 | 0.00 | 0.00 | 0.00 | 42 | 1019.3 |
| 20260507140725 | 56 | 19 | 4.0 | 11.0 | 0.00 | 0.00 | 0.00 | 44 | 1019.2 |
| 20260507134734 | 54 | 342 | 8.0 | 11.0 | 0.00 | 0.00 | 0.00 | 45 | 1018.9 |
| 20260507132723 | 52 | 38 | 7.0 | 10.0 | 0.00 | 0.00 | 0.00 | 46 | 1018.7 |
| 20260507131733 | 52 | 39 | 8.0 | 11.0 | 0.00 | 0.00 | 0.00 | 46 | 1018.7 |
| 20260507130726 | 51 | 10 | 5.0 | 10.0 | 0.00 | 0.00 | 0.00 | 46 | 1018.7 |
| 20260507125720 | 50 | 22 | 5.0 | 10.0 | 0.00 | 0.00 | 0.00 | 47 | 1018.5 |
| 20260507124730 | 50 | 349 | 6.0 | 9.0 | 0.00 | 0.00 | 0.00 | 46 | 1018.5 |
| 20260507123725 | 49 | 10 | 5.0 | 10.0 | 0.00 | 0.00 | 0.00 | 45 | 1018.5 |
| 20260507122731 | 50 | 21 | 5.0 | 8.0 | 0.00 | 0.00 | 0.00 | 43 | 1018.4 |
| 20260507121724 | 50 | 28 | 4.0 | 9.0 | 0.00 | 0.00 | 0.00 | 41 | 1018.4 |
| 20260507120719 | 50 | 44 | 5.0 | 9.0 | 0.00 | 0.00 | 0.00 | 41 | 1018.3 |
| 20260507115731 | 49 | 55 | 5.0 | 6.0 | 0.00 | 0.00 | 0.00 | 40 | 1018.2 |
| 20260507114730 | 49 | 12 | 3.0 | 7.0 | 0.00 | 0.00 | 0.00 | 38 | 1018.2 |
| 20260507113730 | 49 | 67 | 5.0 | 8.0 | 0.00 | 0.00 | 0.00 | 36 | 1018.0 |
| 20260507112723 | 49 | 62 | 3.0 | 5.0 | 0.00 | 0.00 | 0.00 | 37 | 1017.9 |
| 20260507111719 | 49 | 54 | 1.0 | 8.0 | 0.00 | 0.00 | 0.00 | 37 | 1017.9 |
| 20260507110714 | 49 | 11 | 4.0 | 8.0 | 0.00 | 0.00 | 0.00 | 35 | 1017.8 |
| 20260507105730 | 50 | 13 | 4.0 | 8.0 | 0.00 | 0.00 | 0.00 | 32 | 1017.7 |
| 20260507102718 | 50 | 360 | 3.0 | 5.0 | 0.00 | 0.00 | 0.00 | 30 | 1017.6 |
| 20260507101727 | 51 | 18 | 3.0 | 6.0 | 0.00 | 0.00 | 0.00 | 29 | 1017.5 |
| 20260507100722 | 52 | 5 | 3.0 | 6.0 | 0.00 | 0.00 | 0.00 | 28 | 1017.5 |
| 20260507094729 | 55 | 349 | 2.0 | 5.0 | 0.00 | 0.00 | 0.00 | 25 | 1017.2 |
| 20260507092719 | 57 | 339 | 2.0 | 6.0 | 0.00 | 0.00 | 0.00 | 22 | 1017.2 |
| 20260507091715 | 58 | 355 | 4.0 | 8.0 | 0.00 | 0.00 | 0.00 | 21 | 1017.2 |
| 20260507090712 | 58 | 17 | 3.0 | 5.0 | 0.00 | 0.00 | 0.00 | 21 | 1017.2 |
| 20260507085723 | 58 | 49 | 1.0 | 2.0 | 0.00 | 0.00 | 0.00 | 22 | 1017.1 |
| 20260507083722 | 59 | 44 | 3.0 | 5.0 | 0.00 | 0.00 | 0.00 | 20 | 1017.1 |